sat.trackr.live / text

‹ back to catalog

STARLINK-35110

NORAD 65539 · 2025-200V

PAYLOAD ACTIVE UNKNOWN

§ Identity

Operator
Country
US
Launch date
2025-09-06
Launch site
AFWTR
Launch vehicle
Mass (kg)
RCS (m²)

Purposes: comms

External: N2YO · Heavens-Above · Gunter

§ Orbital elements

Epoch: 2026-09-20T10:25:50.462976Z

Period
93.91 min
Inclination
97.2839°
Eccentricity
0.0000898
Mean motion
15.33464629 rev/d
Perigee alt
464.9 km
Apogee alt
466.1 km
Semi-major
6,843.6 km
B*
5.9996e-4
RAAN
329.8603°
Arg perigee
96.9023°
Mean anomaly
263.2322°
Rev number
5,863

§ Raw data

STARLINK-351101 65539U 25200V   26263.43461184  .00019355  00000+0  59996-3 0  99902 65539  97.2839 329.8603 0000898  96.9023 263.2322 15.33464629 58638

JSON: /api/v1/satellites/65539 · /tle

For live sub-satellite position, see the globe view (requires WebGL).

§ Visibility from observer

Set your observer location to see the next 7 days of passes ≥ 10°. The values pass through the URL so the page stays shareable.

No JS? Fill the form by hand. The geolocation button needs JavaScript.